* Astronomy

Members Login
Username 
 
Password 
    Remember Me  
Post Info TOPIC: Asteroid 2012 FK35


L

Posts: 131433
Date:
Asteroid 2012 FK35
Permalink  
 


Orbital elements:
2012 FK35                                                Earth MOID = 0.2262 AU
Epoch 2012 Sept. 30.0 TT = JDT 2456200.5                MPC
M  13.86849              (2000.0)            P               Q
n   0.56356775     Peri.  303.04290     +0.73234820     +0.65502543
a   1.4515722      Node    18.48468     -0.23639045     +0.50077934
e   0.5813192      Incl.   35.92717     -0.63858098     +0.56582837
P   1.75           H   18.2           G   0.15           U   4

MPEC 2012 - U120



__________________
Page 1 of 1  sorted by
 
Quick Reply

Please log in to post quick replies.



Create your own FREE Forum
Report Abuse
Powered by ActiveBoard